Elmira, NY

5:22 PM EDT on March 24, 2017 (GMT -0400)
Elmira-Corning Regional

Weather History for KELM - July, 2013

Change the Weather History Date:

Friday, July 12, 2013

  Actual Average Record
Temperature  
Mean Temperature 68 °F -  
Max Temperature 77 °F 80 °F 94 °F (1944)
Min Temperature 59 °F 56 °F 41 °F (1999)
Cooling Degree Days 3    
Growing Degree Days 18 (Base 50)    
Moisture  
Dew Point 58 °F    
Average Humidity 74    
Maximum Humidity 93    
Minimum Humidity 52    
Precipitation  
Precipitation 0.00 in - - ()
Sea Level Pressure  
Sea Level Pressure 30.09 in    
Wind  
Wind Speed 3 mph (NE)    
Max Wind Speed 12 mph    
Max Gust Speed -    
Visibility 10 miles    
Events      
Averages and records for this station are not official NWS values.
T = Trace of Precipitation, MM = Missing Value Source: NWS Daily Summary

Daily Weather History Graph

Daily Weather History Graph

Search for Another Location

Airport or City:

Trip Planner

Search our weather history database for the weather conditions in past years. The results will help you decide how hot, cold, wet, or windy it might be!

Date:

Astronomy

Jul. 12, 2013 Rise Set
Actual Time 5:42 AM EDT 8:43 PM EDT
Civil Twilight 5:08 AM EDT 9:17 PM EDT
Nautical Twilight 4:25 AM EDT 9:59 PM EDT
Astronomical Twilight 3:35 AM EDT 10:50 PM EDT
Moon 10:02 AM EDT (7/12) 10:46 PM EDT (7/12)
Length of Visible Light 16h 08m
Length of Day
15h 01m
Waxing Crescent, 17% of the Moon is Illuminated
Jul 12
Waxing Crescent
Jul 15
First Quarter
Jul 22
Full
Jul 29
Last Quarter
Aug 6
New

Hourly Weather History & Observations

Time (EDT) Temp. Dew Point Humidity Pressure Visibility Wind Dir Wind Speed Gust Speed Precip Events Conditions
12:53 AM 60.1 °F 57.0 °F 90% 30.01 in 10.0 mi Calm Calm - N/A   Clear
1:53 AM 59.0 °F 57.0 °F 93% 30.01 in 10.0 mi Calm Calm - N/A   Clear
2:53 AM 59.0 °F 55.9 °F 90% 30.03 in 8.0 mi Calm Calm - N/A   Clear
3:53 AM 60.1 °F 57.9 °F 93% 30.04 in 7.0 mi Calm Calm - N/A   Clear
4:53 AM 60.1 °F 57.9 °F 93% 30.05 in 9.0 mi Calm Calm - N/A   Clear
5:53 AM 60.1 °F 57.9 °F 93% 30.08 in 8.0 mi Calm Calm - N/A   Mostly Cloudy
6:53 AM 61.0 °F 57.9 °F 90% 30.08 in 7.0 mi Calm Calm - N/A   Clear
7:53 AM 62.1 °F 59.0 °F 90% 30.10 in 9.0 mi Calm Calm - N/A   Partly Cloudy
8:53 AM 64.9 °F 61.0 °F 87% 30.11 in 10.0 mi Calm Calm - N/A   Scattered Clouds
9:53 AM 70.0 °F 60.1 °F 71% 30.10 in 10.0 mi NE 6.9 mph - N/A   Clear
10:53 AM 73.0 °F 61.0 °F 66% 30.10 in 10.0 mi NNE 5.8 mph - N/A   Clear
11:53 AM 73.9 °F 59.0 °F 59% 30.11 in 10.0 mi NE 8.1 mph - N/A   Clear
12:53 PM 75.9 °F 57.9 °F 54% 30.11 in 10.0 mi NE 9.2 mph - N/A   Clear
1:53 PM 75.9 °F 59.0 °F 56% 30.11 in 10.0 mi NE 9.2 mph - N/A   Clear
2:53 PM 77.0 °F 57.9 °F 52% 30.10 in 10.0 mi NE 11.5 mph - N/A   Clear
3:53 PM 72.0 °F 59.0 °F 64% 30.10 in 10.0 mi NNE 10.4 mph - N/A   Clear
4:53 PM 73.9 °F 60.1 °F 62% 30.10 in 10.0 mi North 9.2 mph - N/A   Clear
5:53 PM 73.9 °F 60.1 °F 62% 30.09 in 10.0 mi NNE 8.1 mph - N/A   Clear
6:53 PM 68.0 °F 60.1 °F 76% 30.10 in 10.0 mi NNE 11.5 mph - N/A   Clear
7:53 PM 71.1 °F 57.9 °F 63% 30.12 in 10.0 mi NNE 6.9 mph - N/A   Clear
8:53 PM 69.1 °F 57.9 °F 68% 30.12 in 10.0 mi Variable 3.5 mph - N/A   Clear
9:53 PM 69.1 °F 57.9 °F 68% 30.13 in 10.0 mi ENE 5.8 mph - N/A   Clear
10:53 PM 68.0 °F 57.0 °F 68% 30.15 in 10.0 mi NE 4.6 mph - N/A   Scattered Clouds
11:53 PM 66.9 °F 57.0 °F 70% 30.15 in 10.0 mi ENE 5.8 mph - N/A   Partly Cloudy